Location: Newark
(34.6283°N, 36.0776°E)
Time: 00:59:21
(UTC+00:00)

S-56A Canister/Altair - Pass Details

Date: 23 October 2019
Orbit: 634 x 2498 km, 38.9° (Epoch: 10 November)

Event Time Altitude Azimuth Distance (km) Brightness Sun altitude
Rises 00:33:05 0° 267° (W) 3,268 - -40.4°
Reaches altitude 10° 00:35:13 10° 270° (W) 2,484 - -40.0°
Maximum altitude 00:41:03 67° 353° (N) 1,180 - -38.8°
Exits shadow 00:42:49 52° 50° (NE) 1,438 9.0 -38.5°
Drops below altitude 10° 00:49:57 10° 76° (ENE) 3,707 11.7 -37.1°
Sets 00:53:48 0° 78° (ENE) 5,004 12.7 -36.3°
